[[{"header":{"parameterUnit":"m.s-1","parameterCategory":2,"la1":30.2991,"la2":30.254,"lo1":-89.0895,"lo2":-89.0444,"dy":0.0017,"dx":0.0017,"nx":28,"ny":28,"refTime":"2024-05-03T03:00:00:Z","depth":"0","parameterNumber":2,"parameterNumberName":"U-component_of_CURRENTS"},"data":[0,0,0,0,0,0,0,0,0,0,0,0,0,0,0,0,0,0,0,0,0,0,0,0,0,0,0,0,0,0,0,0,0,0,0,0,0,0,0,0,0,0,0,0,0,0,0,0,0,0,0,0,0,0,0,0,0,0,0.2742,0.2742,0,0.2695,0.2693,0.2692,0.2644,0.2645,0.2645,0.2645,0.2516,0.2512,0.2509,0,0,0,0,0,0,0,0,0,0,0,0,0,0.2713,0.2713,0.2742,0.2742,0.2742,0.2695,0.2693,0.2691,0.2644,0.2645,0.2645,0.2645,0.2517,0.2513,0.2508,0,0,0,0,0,0,0,0,0,0,0,0,0,0.2692,0.2713,0.2742,0.2721,0.2719,0.2695,0.2693,0.2691,0.2644,0.2645,0.2645,0.2646,0.2519,0.2513,0.2508,0.2464,0,0,0.2491,0.2488,0,0,0,0,0,0,0,0,0.2693,0.2692,0.2723,0.2722,0.272,0.2685,0.2636,0.2615,0.2644,0.2662,0.2645,0.2646,0.2571,0.2561,0.2538,0.2458,0.2453,0.249,0.2487,0.2484,0.2483,0,0,0,0,0,0,0,0.2695,0.2693,0.2712,0.2724,0.2722,0.2688,0.2685,0.2631,0.2605,0.266,0.2659,0.267,0.2568,0.2544,0.2535,0.2451,0.249,0.2485,0.2482,0.248,0.2441,0.2444,0,0,0,0,0,0,0.2725,0.2695,0.2714,0.2712,0.2719,0.2689,0.2685,0.2687,0.2607,0.2599,0.267,0.2668,0.2553,0.2541,0.253,0.2547,0.2485,0.2479,0.2476,0.2439,0.2442,0.2444,0,0,0,0,0,0,0.2724,0.2727,0.2716,0.2711,0.2709,0.2691,0.2692,0.2686,0.2676,0.2618,0.2606,0.2669,0.2553,0.2538,0.2518,0.2539,0.2477,0.2472,0.2436,0.244,0.2443,0.2534,0,0,0,0,0,0,0.2723,0.2726,0.2724,0.2713,0.2711,0.2714,0.2693,0.2686,0.2686,0.2684,0.2612,0.26,0.2552,0.2527,0.2512,0.253,0.2467,0.2433,0.2438,0.2442,0.2528,0.254,0.255,0,0,0,0,0,0.2722,0.271,0.2724,0.2726,0.2712,0.2716,0.271,0.2691,0.2686,0.2682,0.2655,0.2603,0.2545,0.2523,0.2506,0.2523,0.2431,0.2437,0.2442,0.2523,0.2537,0.255,0,0,0,0,0,0,0.2681,0.2706,0.2719,0.2712,0.2728,0.2712,0.2701,0.2702,0.2674,0.2671,0.2616,0.2602,0.2597,0.2555,0.2533,0.2532,0.2485,0.2487,0.2553,0.2566,0.2577,0.2555,0.2463,0,0,0,0,0,0.2681,0.2685,0.2711,0.2707,0.2718,0.2716,0.2713,0.2713,0.2698,0.2686,0.2646,0.2616,0.2602,0.2581,0.2551,0.2533,0.2525,0.2542,0.2553,0.2563,0.2538,0.2592,0.2605,0.2462,0.2462,0.2461,0,0,0.2663,0.268,0.268,0.2701,0.2704,0.2714,0.2711,0.2718,0.2723,0.2675,0.2654,0.2645,0.261,0.2605,0.2599,0.257,0.2606,0.257,0.2577,0.2547,0.2598,0.2612,0.2624,0.2465,0.2465,0.2464,0,0,0.2639,0.2651,0.2655,0.2674,0.2705,0.2709,0.2723,0.2728,0.2726,0.2722,0.2709,0.2719,0.2667,0.2662,0.2651,0.2704,0.2668,0.2705,0.2728,0.2782,0.2794,0.2804,0.2832,0.2844,0.2705,0.2705,0.2705,0,0.2619,0.2628,0.2654,0.267,0.2685,0.2715,0.2726,0.2729,0.2727,0.2732,0.2727,0.2717,0.2692,0.2708,0.2734,0.2724,0.2744,0.2677,0.2796,0.2805,0.2814,0.284,0.2852,0.271,0.2709,0.2709,0.2708,0,0.2604,0.2617,0.262,0.2656,0.2675,0.2687,0.2723,0.2732,0.2744,0.2754,0.278,0.2772,0.2768,0.2783,0.2763,0.2821,0.2813,0.2811,0.2757,0.2833,0.2857,0.2868,0.2717,0.2715,0.2714,0.2713,0,0,0.2542,0.26,0.2599,0.2625,0.2671,0.2687,0.2709,0.2739,0.2752,0.2775,0.2793,0.2812,0.283,0.2821,0.2829,0.2868,0.2961,0.2864,0.2865,0.2884,0.3074,0.3066,0.3076,0.2992,0.2993,0.2995,0.3072,0,0.2523,0.2552,0.2582,0.2609,0.2633,0.2674,0.2687,0.2724,0.2751,0.2772,0.2813,0.2827,0.2842,0.2853,0.2907,0.2937,0.299,0.2938,0.3002,0.3002,0.298,0.3088,0.29,0.2953,0.3082,0.3084,0.3085,0,0.2492,0.2525,0.2546,0.2605,0.2617,0.2631,0.2673,0.2693,0.2742,0.2763,0.2813,0.2839,0.2901,0.2905,0.3015,0.2987,0.3035,0.3063,0.3068,0.3023,0.3014,0.2895,0.2966,0.2864,0.3101,0.31,0.3098,0,0.2444,0.2496,0.2514,0.2533,0.2596,0.2608,0.2638,0.2685,0.2716,0.2763,0.2794,0.2865,0.2912,0.2987,0.3069,0.3048,0.3186,0.3165,0.3204,0.3203,0.303,0.301,0.2992,0.3252,0.3252,0.3251,0.3251,0,0.2409,0.2423,0.2493,0.2503,0.2518,0.2582,0.26,0.263,0.2698,0.2735,0.2795,0.2848,0.2941,0.3034,0.3088,0.3192,0.3219,0.3217,0.3233,0.306,0.3043,0.2933,0.2891,0.3254,0.3254,0.3253,0.3253,0,0.2346,0.239,0.2414,0.2479,0.2493,0.2504,0.258,0.2603,0.267,0.2725,0.2746,0.2863,0.2973,0.3071,0.3189,0.3225,0.3203,0.3336,0.3117,0.3107,0.3018,0.2989,0.2889,0.2814,0.3366,0.3367,0.3367,0,0.2317,0.2324,0.2376,0.2385,0.2409,0.2447,0.2467,0.2559,0.2599,0.2734,0.2759,0.2894,0.2969,0.3149,0.3221,0.3319,0.3219,0.3201,0.3125,0.3001,0.298,0.2869,0.2804,0.2934,0.293,0.2928,0.2926,0,0.2261,0.2271,0.2292,0.2309,0.2331,0.2367,0.2419,0.2455,0.2565,0.262,0.2716,0.2792,0.2974,0.2999,0.3149,0.3178,0.3001,0.3152,0.3071,0.2684,0.2509,0.2447,0.289,0.2902,0.2905,0.2906,0.2908,0.2909,0.2205,0.2197,0.2218,0.2217,0.2247,0.2275,0.2263,0.2348,0.2401,0.2463,0.2604,0.265,0.2747,0.2928,0.2959,0.2864,0.2905,0.2744,0.2734,0.2645,0.2516,0.2916,0.2927,0.293,0.2932,0.2934,0.2935,0,0.2129,0.2124,0.2129,0.2122,0.2103,0.2163,0.2207,0.2185,0.2192,0.2314,0.2368,0.2412,0.2435,0.2509,0.2513,0.2439,0.2319,0.2354,0.2111,0.2086,0.2468,0.2392,0.2228,0.2228,0.2229,0.2229,0.2229,0.2229,0.209,0.2049,0.204,0.1967,0.1964,0.191,0.1907,0.1914,0.1969,0.1983,0.2,0.2075,0.2177,0.2172,0.2076,0.2031,0.1881,0.1782,0.1853,0.207,0.2103,0.2134,0.2052,0.182,0.1819,0.132,0.1317,0.1314]},{"header":{"parameterUnit":"m.s-1","parameterCategory":2,"la1":30.2991,"la2":30.254,"lo1":-89.0895,"lo2":-89.0444,"dy":0.0017,"dx":0.0017,"nx":28,"ny":28,"refTime":"2024-05-03T03:00:00:Z","depth":"0","parameterNumber":3,"parameterNumberName":"V-component_of_CURRENTS"},"data":[0,0,0,0,0,0,0,0,0,0,0,0,0,0,0,0,0,0,0,0,0,0,0,0,0,0,0,0,0,0,0,0,0,0,0,0,0,0,0,0,0,0,0,0,0,0,0,0,0,0,0,0,0,0,0,0,0,0,0.0011,0.0011,0,-0.0011,-0.0011,-0.0012,-0.0025,-0.0026,-0.0026,-0.0026,-0.0073,-0.0075,-0.0076,0,0,0,0,0,0,0,0,0,0,0,0,0,0.0016,0.0016,0.0011,0.0011,0.001,-0.0011,-0.0011,-0.0012,-0.0025,-0.0026,-0.0026,-0.0026,-0.0073,-0.0074,-0.0076,0,0,0,0,0,0,0,0,0,0,0,0,0,0.0005,0.0016,0.0011,0.0001,0.0,-0.0011,-0.0011,-0.0012,-0.0025,-0.0026,-0.0026,-0.0026,-0.0073,-0.0074,-0.0076,-0.0085,0,0,-0.0082,-0.0082,0,0,0,0,0,0,0,0,0.0006,0.0005,0.0003,0.0002,0.0001,-0.0016,-0.0027,-0.0038,-0.0025,-0.0016,-0.0026,-0.0026,-0.0056,-0.0059,-0.0063,-0.0088,-0.009,-0.0082,-0.0083,-0.0084,-0.0084,0,0,0,0,0,0,0,0.0007,0.0006,0.0002,0.0003,0.0001,-0.0011,-0.0012,-0.0029,-0.0036,-0.0017,-0.0018,-0.002,-0.0057,-0.0061,-0.0064,-0.009,-0.0082,-0.0083,-0.0084,-0.0085,-0.0144,-0.0144,0,0,0,0,0,0,0.0011,0.0007,0.0003,0.0001,0.0003,-0.0011,-0.0013,-0.001,-0.0035,-0.0039,-0.002,-0.0021,-0.0058,-0.0062,-0.0066,-0.0078,-0.0084,-0.0085,-0.0086,-0.0143,-0.0144,-0.0144,0,0,0,0,0,0,0.0012,0.0011,0.0004,0.0003,0.0002,-0.0011,-0.0008,-0.0011,-0.0014,-0.0037,-0.0041,-0.0021,-0.0058,-0.0064,-0.0081,-0.008,-0.0086,-0.0088,-0.0143,-0.0143,-0.0144,-0.0102,0,0,0,0,0,0,0.0012,0.0012,0.0015,0.0004,0.0002,0.0002,-0.0008,-0.0011,-0.0015,-0.0016,-0.0039,-0.0044,-0.0059,-0.0078,-0.0083,-0.0083,-0.0089,-0.0142,-0.0143,-0.0144,-0.0103,-0.0102,-0.01,0,0,0,0,0,0.0012,0.0024,0.0015,0.0015,0.0007,0.0002,-0.0,-0.001,-0.0015,-0.0014,-0.0032,-0.0043,-0.0087,-0.008,-0.0085,-0.0086,-0.0142,-0.0143,-0.0144,-0.0104,-0.0102,-0.01,0,0,0,0,0,0,0.004,0.0023,0.0013,0.0022,0.0012,-0.0,0.0003,-0.0008,-0.002,-0.0023,-0.0045,-0.0051,-0.0068,-0.0085,-0.0076,-0.0108,-0.0118,-0.012,-0.0086,-0.0085,-0.0083,-0.006,-0.0091,0,0,0,0,0,0.0044,0.0041,0.0026,0.0034,0.003,0.0015,0.0011,0.0002,-0.0011,-0.0016,-0.0033,-0.0056,-0.0077,-0.0086,-0.0108,-0.012,-0.0127,-0.0127,-0.0126,-0.0124,-0.0111,-0.0125,-0.0123,-0.0148,-0.0148,-0.0148,0,0,0.0057,0.0048,0.0047,0.0037,0.003,0.0033,0.0013,0.001,0.0013,-0.002,-0.0021,-0.0051,-0.0081,-0.0096,-0.0106,-0.0108,-0.0121,-0.0126,-0.0124,-0.0111,-0.0126,-0.0123,-0.0121,-0.0148,-0.0148,-0.0148,0,0,0.0084,0.0074,0.0079,0.0071,0.0057,0.0047,0.0047,0.0032,0.0026,0.0016,-0.0011,-0.0036,-0.0064,-0.0084,-0.0098,-0.0102,-0.0115,-0.0118,-0.0086,-0.01,-0.0097,-0.0095,-0.0095,-0.0093,-0.0113,-0.0113,-0.0113,0,0.0101,0.0106,0.0081,0.0087,0.0088,0.0057,0.007,0.0059,0.0039,0.0036,0.0022,-0.0026,-0.0054,-0.0071,-0.0075,-0.0095,-0.0103,-0.0087,-0.0095,-0.0093,-0.0092,-0.0093,-0.0091,-0.0111,-0.0112,-0.0112,-0.0112,0,0.0131,0.0133,0.0139,0.0132,0.0131,0.0135,0.0117,0.011,0.0095,0.008,0.0057,0.0016,-0.0008,-0.0031,-0.0052,-0.0062,-0.007,-0.0092,-0.0093,-0.0086,-0.0088,-0.0087,-0.0109,-0.0109,-0.011,-0.011,0,0,0.0172,0.0161,0.0164,0.0171,0.0155,0.0162,0.0162,0.0157,0.0163,0.0127,0.0136,0.0082,0.0053,0.0035,-0.0005,-0.0021,-0.0021,-0.0048,-0.0049,-0.0034,-0.004,-0.0026,-0.0024,-0.0045,-0.0045,-0.0045,-0.0043,0,0.0204,0.0226,0.021,0.0237,0.0249,0.0223,0.0231,0.0218,0.0201,0.0198,0.0147,0.0132,0.008,0.0066,0.0042,-0.0005,-0.0018,-0.0018,-0.006,-0.0061,-0.0038,-0.0022,0.0025,0.0031,-0.0043,-0.0043,-0.0042,0,0.0241,0.025,0.0283,0.029,0.0294,0.0304,0.0314,0.0312,0.0289,0.0274,0.0244,0.0207,0.0173,0.0129,0.0067,0.0068,0.0023,-0.0016,-0.0017,-0.0015,-0.0045,0.001,0.0035,-0.0061,-0.0041,-0.0041,-0.0041,0,0.0289,0.0303,0.0334,0.0337,0.034,0.0352,0.0349,0.0335,0.0346,0.0321,0.0327,0.0273,0.0259,0.0191,0.0113,0.009,0.0054,0.0011,-0.0018,-0.0017,0.0011,0.0014,-0.0047,-0.0025,-0.0025,-0.0025,-0.0025,0,0.0328,0.0351,0.0359,0.0375,0.0417,0.0397,0.0432,0.0417,0.0412,0.0443,0.0368,0.0385,0.0273,0.0237,0.0151,0.0085,0.0085,0.0002,-0.0013,0.0026,0.003,-0.0063,-0.0116,-0.0024,-0.0024,-0.0024,-0.0024,0,0.0368,0.0372,0.0412,0.043,0.044,0.0468,0.0488,0.0511,0.049,0.053,0.0528,0.0479,0.0438,0.0335,0.0239,0.0149,0.0038,0.0045,0.0107,0.0099,-0.0028,-0.0079,-0.0122,-0.0152,0.0013,0.0014,0.0014,0,0.0387,0.0412,0.0461,0.0492,0.05,0.0535,0.0563,0.0554,0.0586,0.06,0.0633,0.06,0.061,0.0471,0.0325,0.0199,0.0083,0.0118,0.0075,-0.0013,-0.0083,-0.0115,-0.0141,0.0128,0.0129,0.013,0.0131,0,0.0426,0.0448,0.0483,0.0551,0.0593,0.064,0.0678,0.0722,0.0731,0.0777,0.0833,0.0842,0.0726,0.0625,0.0431,0.0324,0.0079,0.0134,0.0025,-0.0004,-0.0024,-0.0067,0.0107,0.014,0.0139,0.0139,0.0138,0.0138,0.0459,0.05,0.0554,0.0619,0.0669,0.0738,0.0789,0.0851,0.0933,0.102,0.1016,0.1069,0.0879,0.0639,0.0466,0.0177,0.0162,0.007,0.0015,-0.001,-0.0039,0.0163,0.0185,0.0184,0.0184,0.0183,0.0183,0,0.0511,0.0556,0.0615,0.0697,0.0757,0.0773,0.0865,0.093,0.1055,0.1163,0.124,0.1216,0.0984,0.0696,0.0316,0.0094,0.001,-0.0042,-0.0089,-0.0112,0.0057,0.0061,0.008,0.008,0.008,0.008,0.008,0.008,0.0539,0.0614,0.0649,0.076,0.0812,0.0902,0.0961,0.1072,0.1171,0.1322,0.1396,0.1431,0.123,0.0535,0.0053,-0.0067,-0.0223,-0.0232,-0.0337,-0.0243,-0.0238,-0.0232,-0.0243,-0.0289,-0.0289,-0.046,-0.0462,-0.0464]}],[{"header":{"parameterUnit":"m.s-1","parameterCategory":2,"la1":30.2991,"la2":30.254,"lo1":-89.0895,"lo2":-89.0444,"dy":0.0017,"dx":0.0017,"nx":28,"ny":28,"refTime":"2024-05-03T03:00:00:Z","depth":"2","parameterNumber":2,"parameterNumberName":"U-component_of_CURRENTS"},"data":[0,0,0,0,0,0,0,0,0,0,0,0,0,0,0,0,0,0,0,0,0,0,0,0,0,0,0,0,0,0,0,0,0,0,0,0,0,0,0,0,0,0,0,0,0,0,0,0,0,0,0,0,0,0,0,0,0,0,0.2474,0.2475,0,0.2511,0.251,0.251,0.2498,0.2498,0.2498,0.2498,0.2386,0.2383,0.238,0,0,0,0,0,0,0,0,0,0,0,0,0,0.2237,0.2241,0.2474,0.2475,0.2477,0.2511,0.251,0.251,0.2498,0.2498,0.2498,0.2498,0.2387,0.2383,0.2379,0,0,0,0,0,0,0,0,0,0,0,0,0,0.2304,0.2243,0.2474,0.2482,0.2483,0.2511,0.251,0.251,0.2498,0.2498,0.2498,0.2498,0.2388,0.2384,0.2379,0.2348,0,0,0.2365,0.2363,0,0,0,0,0,0,0,0,0.2301,0.2312,0.2479,0.2481,0.2483,0.2508,0.2386,0.2452,0.2498,0.2482,0.2498,0.2498,0.2419,0.2412,0.2407,0.2343,0.2338,0.2365,0.2362,0.236,0.2358,0,0,0,0,0,0,0,0.2296,0.231,0.2479,0.2481,0.2483,0.243,0.244,0.2397,0.2439,0.2483,0.2485,0.2504,0.2418,0.2412,0.2404,0.2337,0.2365,0.2361,0.2358,0.2356,0.2328,0.233,0,0,0,0,0,0,0.232,0.2307,0.2478,0.2481,0.2401,0.2436,0.2447,0.2492,0.2443,0.244,0.2504,0.2504,0.2419,0.2409,0.24,0.2414,0.236,0.2356,0.2353,0.2326,0.2329,0.2331,0,0,0,0,0,0,0.2315,0.2336,0.2476,0.2399,0.2415,0.2442,0.2492,0.2493,0.2503,0.2462,0.2454,0.2516,0.2419,0.2406,0.2389,0.2408,0.2353,0.2349,0.2324,0.2327,0.233,0.2408,0,0,0,0,0,0,0.2309,0.2335,0.2394,0.2403,0.2421,0.249,0.2493,0.2494,0.2518,0.2518,0.2469,0.2458,0.2418,0.2397,0.2385,0.24,0.2346,0.2321,0.2325,0.2329,0.2403,0.2413,0.2422,0,0,0,0,0,0.23,0.2355,0.2397,0.2419,0.2497,0.2491,0.2493,0.2505,0.2519,0.2514,0.2506,0.246,0.2413,0.2394,0.238,0.2394,0.2319,0.2324,0.2328,0.2399,0.2411,0.2422,0,0,0,0,0,0,0.2264,0.2361,0.2406,0.2488,0.2499,0.2493,0.2509,0.2517,0.2508,0.2517,0.2473,0.2461,0.2456,0.2421,0.2402,0.2404,0.2363,0.2365,0.2422,0.2433,0.2443,0.2433,0.2342,0,0,0,0,0,0.2297,0.2378,0.2423,0.2488,0.25,0.2512,0.2524,0.2528,0.252,0.2518,0.2491,0.2474,0.2461,0.2445,0.2419,0.2408,0.2407,0.2415,0.2425,0.2433,0.242,0.2461,0.2473,0.2346,0.2346,0.2345,0,0,0.2296,0.2369,0.2411,0.2489,0.2503,0.2514,0.2515,0.253,0.2539,0.2504,0.2507,0.2499,0.2468,0.2466,0.2461,0.2438,0.2478,0.2439,0.2446,0.2427,0.2467,0.2479,0.249,0.2349,0.2348,0.2348,0,0,0.2306,0.2401,0.2459,0.2477,0.2528,0.253,0.2539,0.2547,0.2551,0.2557,0.2551,0.2558,0.2523,0.2513,0.2503,0.2549,0.2529,0.2553,0.2584,0.2626,0.2636,0.2645,0.2692,0.2705,0.2556,0.2557,0.2557,0,0.2292,0.2387,0.2459,0.2499,0.2518,0.2538,0.2551,0.2556,0.2558,0.2567,0.2565,0.2572,0.2543,0.2555,0.2578,0.2566,0.2596,0.2539,0.2638,0.2647,0.2654,0.27,0.2713,0.2561,0.256,0.256,0.2559,0,0.2323,0.24,0.2416,0.2498,0.2531,0.2526,0.256,0.2574,0.2593,0.2604,0.2628,0.2616,0.2622,0.2626,0.2609,0.2658,0.2667,0.2648,0.2605,0.2672,0.2716,0.2728,0.2567,0.2565,0.2564,0.2563,0,0,0.2243,0.2403,0.2403,0.2459,0.2521,0.2539,0.2571,0.2592,0.2614,0.2636,0.2663,0.2668,0.2689,0.268,0.268,0.2708,0.2799,0.2708,0.2709,0.2749,0.2915,0.2762,0.276,0.2812,0.2814,0.2815,0.2935,0,0.2214,0.228,0.2387,0.244,0.2463,0.2531,0.256,0.2606,0.2628,0.2656,0.268,0.2698,0.2704,0.2718,0.276,0.278,0.2829,0.2769,0.2847,0.2849,0.27,0.2767,0.2541,0.2613,0.2946,0.2948,0.2949,0,0.2189,0.2241,0.2289,0.2427,0.2446,0.2493,0.2557,0.2599,0.2653,0.2673,0.2721,0.2741,0.2795,0.2783,0.2884,0.2856,0.2896,0.2912,0.2917,0.2743,0.2716,0.2595,0.2622,0.2968,0.2967,0.2965,0.2964,0,0.2093,0.2181,0.2223,0.2255,0.2396,0.2449,0.2515,0.2591,0.2638,0.2688,0.272,0.2788,0.2827,0.2894,0.2953,0.2932,0.3058,0.303,0.2937,0.2929,0.2727,0.2695,0.3104,0.3104,0.3104,0.3104,0.3103,0,0.2037,0.2077,0.2174,0.2223,0.2239,0.2398,0.2467,0.2512,0.2624,0.2672,0.2737,0.2768,0.2859,0.294,0.2987,0.3004,0.3103,0.2944,0.2943,0.275,0.272,0.3005,0.2992,0.3108,0.3107,0.3106,0.3106,0,0.1978,0.204,0.2104,0.2219,0.2225,0.2262,0.243,0.2476,0.2591,0.2655,0.2678,0.2786,0.2843,0.2935,0.303,0.3023,0.3058,0.3045,0.2811,0.2775,0.2896,0.2886,0.2933,0.2928,0.2924,0.2921,0.2918,0,0.1993,0.1995,0.206,0.2064,0.2127,0.2194,0.2226,0.2392,0.2464,0.2645,0.2658,0.2752,0.2745,0.2844,0.2833,0.287,0.2982,0.2693,0.2569,0.2881,0.2877,0.2873,0.2868,0.2374,0.2367,0.2361,0.2357,0,0.1974,0.1975,0.2016,0.1984,0.2014,0.2059,0.215,0.2171,0.2373,0.2433,0.25,0.2519,0.2579,0.247,0.2525,0.2525,0.2653,0.2569,0.2993,0.2418,0.2353,0.2348,0.2363,0.2306,0.2311,0.2315,0.2317,0.2319,0.1957,0.1915,0.1926,0.1886,0.191,0.1908,0.1913,0.2008,0.2067,0.2124,0.2247,0.2211,0.2255,0.2139,0.2123,0.2132,0.2293,0.2229,0.2248,0.2273,0.2152,0.2079,0.1962,0.1965,0.1967,0.197,0.1972,0,0.1865,0.1817,0.1812,0.179,0.1774,0.1822,0.1842,0.183,0.18,0.1855,0.1877,0.1723,0.165,0.1734,0.1643,0.1655,0.1668,0.1614,0.1622,0.1672,0.1717,0.1569,0.1225,0.1223,0.1221,0.1219,0,0,0.1818,0.174,0.1699,0.1624,0.1628,0.1584,0.1556,0.1512,0.1531,0.144,0.1417,0.1497,0.1617,0.1361,0.1359,0.1275,0.1461,0.1227,0.1824,0.1879,0.1921,0.2068,0.1894,0,0,0,0,0]},{"header":{"parameterUnit":"m.s-1","parameterCategory":2,"la1":30.2991,"la2":30.254,"lo1":-89.0895,"lo2":-89.0444,"dy":0.0017,"dx":0.0017,"nx":28,"ny":28,"refTime":"2024-05-03T03:00:00:Z","depth":"2","parameterNumber":3,"parameterNumberName":"V-component_of_CURRENTS"},"data":[0,0,0,0,0,0,0,0,0,0,0,0,0,0,0,0,0,0,0,0,0,0,0,0,0,0,0,0,0,0,0,0,0,0,0,0,0,0,0,0,0,0,0,0,0,0,0,0,0,0,0,0,0,0,0,0,0,0,-0.0198,-0.0198,0,-0.0228,-0.0228,-0.0228,-0.0222,-0.0222,-0.0222,-0.0221,-0.0242,-0.0243,-0.0244,0,0,0,0,0,0,0,0,0,0,0,0,0,-0.0113,-0.0114,-0.0198,-0.0198,-0.0199,-0.0228,-0.0228,-0.0228,-0.0222,-0.0222,-0.0222,-0.0221,-0.0242,-0.0243,-0.0244,0,0,0,0,0,0,0,0,0,0,0,0,0,-0.0144,-0.0115,-0.0197,-0.0202,-0.0202,-0.0228,-0.0228,-0.0228,-0.0222,-0.0222,-0.0222,-0.0221,-0.0241,-0.0243,-0.0244,-0.026,0,0,-0.0247,-0.0248,0,0,0,0,0,0,0,0,-0.0143,-0.0147,-0.02,-0.0201,-0.0202,-0.0224,-0.0206,-0.0239,-0.0223,-0.0212,-0.0221,-0.0221,-0.0237,-0.0239,-0.0241,-0.0261,-0.0261,-0.0248,-0.0248,-0.0249,-0.0249,0,0,0,0,0,0,0,-0.014,-0.0146,-0.0207,-0.0201,-0.0202,-0.0195,-0.0199,-0.0212,-0.0224,-0.0213,-0.0213,-0.0221,-0.0237,-0.024,-0.0242,-0.0262,-0.0248,-0.0249,-0.0249,-0.025,-0.0313,-0.0314,0,0,0,0,0,0,-0.0145,-0.0144,-0.0206,-0.0208,-0.0174,-0.0197,-0.0201,-0.0215,-0.0224,-0.0226,-0.0222,-0.0221,-0.0238,-0.024,-0.0242,-0.0259,-0.0249,-0.025,-0.0251,-0.0312,-0.0313,-0.0314,0,0,0,0,0,0,-0.0143,-0.015,-0.0204,-0.0178,-0.0185,-0.0199,-0.0214,-0.0216,-0.0216,-0.0232,-0.0232,-0.0221,-0.0238,-0.0241,-0.0254,-0.0259,-0.0251,-0.0252,-0.0311,-0.0313,-0.0314,-0.0293,0,0,0,0,0,0,-0.014,-0.0149,-0.0162,-0.0179,-0.0187,-0.022,-0.0215,-0.0217,-0.0224,-0.0223,-0.0232,-0.0233,-0.0238,-0.0252,-0.0255,-0.0261,-0.0253,-0.031,-0.0312,-0.0313,-0.0293,-0.0294,-0.0295,0,0,0,0,0,-0.0137,-0.0146,-0.0162,-0.017,-0.0203,-0.0221,-0.0224,-0.023,-0.0224,-0.0227,-0.0232,-0.0233,-0.0266,-0.0253,-0.0257,-0.0263,-0.0309,-0.0311,-0.0313,-0.0292,-0.0294,-0.0295,0,0,0,0,0,0,-0.0098,-0.0148,-0.0165,-0.0185,-0.0206,-0.0221,-0.0224,-0.023,-0.0236,-0.0231,-0.0239,-0.0242,-0.0259,-0.0268,-0.0254,-0.029,-0.029,-0.0293,-0.0273,-0.0275,-0.0276,-0.0239,-0.0254,0,0,0,0,0,-0.0103,-0.0129,-0.0167,-0.0179,-0.0194,-0.0211,-0.0218,-0.0224,-0.0233,-0.0234,-0.0238,-0.0252,-0.0272,-0.0277,-0.0294,-0.0308,-0.0305,-0.0319,-0.032,-0.0321,-0.0296,-0.0323,-0.0323,-0.0321,-0.0321,-0.0321,0,0,-0.0086,-0.0119,-0.013,-0.0175,-0.0189,-0.0195,-0.0213,-0.0222,-0.0216,-0.0237,-0.0225,-0.0254,-0.0278,-0.0295,-0.0304,-0.0301,-0.0318,-0.0323,-0.0323,-0.0298,-0.0325,-0.0325,-0.0325,-0.0323,-0.0323,-0.0322,0,0,-0.0058,-0.0101,-0.0113,-0.0134,-0.0168,-0.0182,-0.0186,-0.0205,-0.0207,-0.0211,-0.023,-0.0259,-0.0274,-0.0298,-0.0312,-0.0331,-0.0325,-0.0344,-0.0312,-0.034,-0.0339,-0.0339,-0.0318,-0.0316,-0.0341,-0.0341,-0.0341,0,-0.0032,-0.0056,-0.0113,-0.0124,-0.0128,-0.0173,-0.0163,-0.0179,-0.0193,-0.0195,-0.0202,-0.0244,-0.0273,-0.0298,-0.0306,-0.033,-0.0325,-0.0303,-0.0338,-0.0338,-0.0338,-0.0317,-0.0315,-0.034,-0.034,-0.0341,-0.0341,0,-0.0011,-0.0029,-0.0032,-0.0066,-0.0082,-0.0081,-0.0116,-0.0123,-0.0133,-0.015,-0.0175,-0.022,-0.0237,-0.0271,-0.0289,-0.0312,-0.0301,-0.0338,-0.0327,-0.0336,-0.0314,-0.0312,-0.0339,-0.034,-0.034,-0.034,0,0,0.0061,-0.0004,0.0001,-0.0007,-0.0047,-0.0052,-0.0054,-0.007,-0.0058,-0.0101,-0.0085,-0.0156,-0.0183,-0.02,-0.0246,-0.0277,-0.0282,-0.0297,-0.0299,-0.0259,-0.0299,-0.0287,-0.0283,-0.0325,-0.0325,-0.0325,-0.0277,0,0.0107,0.0112,0.0061,0.0076,0.0077,0.0029,0.0035,0.001,-0.0008,-0.0008,-0.0081,-0.0093,-0.0157,-0.0164,-0.0207,-0.0259,-0.0278,-0.0288,-0.0309,-0.0308,-0.0284,-0.0282,-0.0257,-0.0213,-0.0275,-0.0275,-0.0275,0,0.0148,0.0148,0.0173,0.0147,0.0144,0.0143,0.0147,0.0142,0.0107,0.0092,0.0054,0.0011,-0.0036,-0.0095,-0.0169,-0.0168,-0.0219,-0.0268,-0.0269,-0.0257,-0.0293,-0.022,-0.0207,-0.0271,-0.0272,-0.0272,-0.0272,0,0.0229,0.0222,0.0249,0.0243,0.021,0.0214,0.0203,0.018,0.0183,0.0158,0.0164,0.0099,0.008,-0.0003,-0.0096,-0.0126,-0.0168,-0.0226,-0.026,-0.0258,-0.0238,-0.0235,-0.0276,-0.0276,-0.0276,-0.0276,-0.0276,0,0.0283,0.0301,0.0291,0.0293,0.0342,0.0288,0.0317,0.03,0.0282,0.0302,0.0222,0.0237,0.0099,0.0056,-0.0043,-0.0122,-0.0124,-0.0231,-0.0248,-0.023,-0.0227,-0.0287,-0.0289,-0.0274,-0.0275,-0.0275,-0.0275,0,0.0337,0.0329,0.0353,0.0352,0.0365,0.0394,0.0384,0.0401,0.0376,0.0407,0.0405,0.0349,0.0301,0.0178,0.0063,-0.0039,-0.0129,-0.0163,-0.0105,-0.0117,-0.0208,-0.0209,-0.0181,-0.018,-0.0179,-0.0179,-0.0178,0,0.0347,0.0375,0.0413,0.0439,0.0432,0.0465,0.0489,0.0462,0.048,0.0486,0.0514,0.048,0.0471,0.0319,0.0143,0.0003,-0.0066,-0.0085,-0.016,-0.0179,-0.02,-0.0202,-0.0205,-0.0115,-0.0114,-0.0113,-0.0112,0,0.0382,0.0407,0.0432,0.0504,0.0538,0.0576,0.0604,0.0642,0.0627,0.0661,0.0709,0.0708,0.0567,0.0431,0.0219,0.0106,-0.0062,-0.0074,-0.0109,-0.015,-0.0116,-0.0136,-0.0141,-0.0105,-0.0106,-0.0107,-0.0107,-0.0107,0.041,0.0458,0.0505,0.0568,0.0613,0.0676,0.0713,0.0754,0.0817,0.0854,0.086,0.0843,0.0672,0.0408,0.0231,0.0022,0.001,-0.0088,-0.009,-0.0094,-0.0103,-0.0071,-0.005,-0.005,-0.005,-0.005,-0.0051,0,0.0455,0.0508,0.0562,0.063,0.0674,0.0696,0.0778,0.0812,0.0907,0.0948,0.0978,0.0831,0.0676,0.0467,0.0176,0.0002,-0.0037,-0.0064,-0.0077,-0.0081,-0.0086,-0.0096,-0.004,-0.0041,-0.0041,-0.0042,0,0,0.0479,0.0547,0.0581,0.0666,0.0709,0.0781,0.0833,0.0908,0.0951,0.1,0.0985,0.0947,0.0726,0.0516,0.029,0.0126,0.0052,0.0085,0.0098,0.0107,0.0104,-0.0073,-0.0091,0,0,0,0,0]}],[{"header":{"parameterUnit":"m.s-1","parameterCategory":2,"la1":30.2991,"la2":30.254,"lo1":-89.0895,"lo2":-89.0444,"dy":0.0017,"dx":0.0017,"nx":28,"ny":28,"refTime":"2024-05-03T03:00:00:Z","depth":"4","parameterNumber":2,"parameterNumberName":"U-component_of_CURRENTS"},"data":[0,0,0,0,0,0,0,0,0,0,0,0,0,0,0,0,0,0,0,0,0,0,0,0,0,0,0,0,0,0,0,0,0,0,0,0,0,0,0,0,0,0,0,0,0,0,0,0,0,0,0,0,0,0,0,0,0,0,0.0708,0.0708,0,0.0657,0.0655,0.0654,0.0605,0.0606,0.0606,0.0606,0.0745,0.0748,0.0752,0,0,0,0,0,0,0,0,0,0,0,0,0,0.0702,0.0701,0.0708,0.0708,0.0708,0.0657,0.0655,0.0654,0.0605,0.0606,0.0606,0.0606,0.0744,0.0748,0.0752,0,0,0,0,0,0,0,0,0,0,0,0,0,0.0674,0.0701,0.0708,0.0684,0.0682,0.0657,0.0655,0.0653,0.0605,0.0606,0.0606,0.0606,0.0742,0.0747,0.0752,0.0779,0,0,0.0769,0.0771,0,0,0,0,0,0,0,0,0.0676,0.0673,0.0688,0.0686,0.0684,0.0646,0.0704,0.0708,0.0605,0.0625,0.0606,0.0606,0.0735,0.0741,0.0715,0.0785,0.0791,0.0769,0.0772,0.0774,0.0776,0,0,0,0,0,0,0,0.0678,0.0675,0.0678,0.0688,0.0686,0.0656,0.0652,0.0703,0.0675,0.0623,0.0622,0.0631,0.0734,0.071,0.0719,0.0793,0.0769,0.0773,0.0777,0.0779,0.0894,0.0894,0,0,0,0,0,0,0.0705,0.0677,0.068,0.0678,0.0691,0.0657,0.0652,0.065,0.0671,0.0675,0.063,0.0629,0.07,0.0712,0.0724,0.0819,0.0774,0.0779,0.0782,0.0894,0.0894,0.0894,0,0,0,0,0,0,0.0705,0.0706,0.0682,0.0684,0.068,0.0658,0.0656,0.0649,0.0635,0.0676,0.0682,0.0625,0.0701,0.0716,0.0799,0.0822,0.0782,0.0786,0.0894,0.0894,0.0894,0.0971,0,0,0,0,0,0,0.0705,0.0705,0.0709,0.0686,0.0682,0.0661,0.0656,0.0648,0.0644,0.0641,0.0674,0.0685,0.0703,0.0791,0.0804,0.0829,0.0791,0.0894,0.0894,0.0894,0.0969,0.0974,0.0978,0,0,0,0,0,0.0705,0.0711,0.0709,0.071,0.0688,0.0661,0.0654,0.0634,0.0644,0.0624,0.068,0.0685,0.0797,0.0797,0.0812,0.0839,0.0894,0.0894,0.0894,0.0967,0.0973,0.0978,0,0,0,0,0,0,0.0719,0.0707,0.0704,0.0709,0.0687,0.0656,0.0655,0.0642,0.0661,0.0696,0.0716,0.0732,0.0797,0.0805,0.0804,0.0861,0.0833,0.0836,0.0883,0.0889,0.0894,0.0897,0.0795,0,0,0,0,0,0.0726,0.0721,0.0704,0.0708,0.0705,0.0683,0.0674,0.0672,0.0689,0.0694,0.0715,0.0756,0.0802,0.084,0.0865,0.0929,0.0928,0.0939,0.0944,0.0948,0.0955,0.0968,0.0976,0.0893,0.0893,0.0893,0,0,0.0733,0.0731,0.0727,0.0711,0.07,0.0691,0.0675,0.0684,0.0694,0.0719,0.075,0.0781,0.0818,0.0875,0.0903,0.0896,0.0973,0.0948,0.0952,0.0957,0.0969,0.0978,0.0985,0.0893,0.0893,0.0893,0,0,0.0749,0.0747,0.0746,0.073,0.0736,0.0721,0.0727,0.0712,0.0721,0.0776,0.0785,0.0848,0.0897,0.0928,0.0957,0.1006,0.099,0.0984,0.1033,0.1047,0.1054,0.1061,0.1087,0.1096,0.0996,0.0996,0.0996,0,0.0768,0.076,0.074,0.074,0.0741,0.0736,0.0741,0.0745,0.0759,0.079,0.0804,0.0879,0.0931,0.0996,0.1017,0.1025,0.1015,0.1021,0.1056,0.1063,0.1068,0.1093,0.1102,0.1,0.0999,0.0999,0.0999,0,0.0768,0.0771,0.0777,0.0769,0.0759,0.0772,0.0779,0.0795,0.083,0.0842,0.0913,0.0971,0.102,0.103,0.1065,0.111,0.1086,0.1058,0.1052,0.1082,0.1106,0.1113,0.1005,0.1004,0.1003,0.1002,0,0,0.08,0.078,0.0789,0.0788,0.0787,0.0782,0.0821,0.0844,0.0885,0.0921,0.0967,0.1064,0.1086,0.1116,0.1133,0.1157,0.1228,0.1133,0.1131,0.1176,0.1254,0.1181,0.1182,0.1192,0.1193,0.1194,0.1262,0,0.0815,0.0824,0.0807,0.0816,0.0817,0.0827,0.0847,0.0883,0.0931,0.097,0.1044,0.1102,0.1116,0.1164,0.1191,0.1217,0.1246,0.1212,0.1202,0.1203,0.1148,0.1187,0.1198,0.1268,0.1269,0.127,0.1271,0,0.0817,0.0828,0.0842,0.0845,0.0849,0.0862,0.0912,0.0928,0.0993,0.1037,0.1101,0.1141,0.1227,0.1215,0.1285,0.1253,0.1269,0.1273,0.1274,0.1182,0.1142,0.1223,0.1284,0.1283,0.1282,0.1282,0.1281,0,0.0832,0.0848,0.0865,0.0864,0.0869,0.0906,0.092,0.0972,0.0997,0.1083,0.113,0.1199,0.1266,0.1282,0.134,0.1315,0.1378,0.1348,0.1288,0.1284,0.1298,0.1289,0.1377,0.1377,0.1377,0.1376,0.1376,0,0.0827,0.084,0.0888,0.0889,0.0934,0.0934,0.098,0.1015,0.1059,0.1087,0.1169,0.1209,0.1282,0.1333,0.1349,0.1354,0.14,0.1309,0.1296,0.1329,0.1323,0.1304,0.1295,0.1379,0.1378,0.1378,0.1377,0,0.08,0.0826,0.085,0.0904,0.0931,0.0964,0.0999,0.1022,0.1079,0.1123,0.1159,0.1245,0.132,0.1372,0.1419,0.1379,0.1383,0.1363,0.1421,0.1408,0.1279,0.1273,0.1314,0.1312,0.131,0.1309,0.1308,0,0.0767,0.0786,0.0868,0.0902,0.0931,0.098,0.1003,0.1037,0.1046,0.1128,0.1141,0.1253,0.1307,0.1325,0.137,0.1397,0.1369,0.1363,0.1302,0.1289,0.1273,0.127,0.1266,0.1305,0.1304,0.1304,0.1304,0,0.0719,0.0771,0.0798,0.0886,0.0935,0.0948,0.0988,0.0989,0.1017,0.1089,0.1116,0.1164,0.1236,0.1279,0.1316,0.1318,0.1364,0.1345,0.1347,0.129,0.1279,0.1264,0.1262,0.1298,0.1298,0.1299,0.1299,0,0.0697,0.0722,0.0791,0.086,0.0905,0.0906,0.0925,0.0936,0.0944,0.1028,0.1034,0.114,0.1219,0.1238,0.1261,0.1277,0.1254,0.1197,0.1207,0.1215,0.1148,0.1117,0.1087,0,0,0,0,0,0.0682,0.0714,0.0762,0.0817,0.0848,0.088,0.0902,0.091,0.0957,0.0955,0.0985,0.1047,0.1099,0.1144,0.1143,0.1221,0.126,0.1213,0.12,0.1264,0.1271,0.1201,0,0,0,0,0,0,0.0671,0.0718,0.0747,0.0762,0.0791,0.0804,0.0817,0.0849,0.0835,0.0903,0.0941,0.0996,0.1068,0.1114,0.1136,0.1149,0.1119,0.1271,0.1268,0.126,0.1267,0.1272,0.1203,0,0,0,0,0]},{"header":{"parameterUnit":"m.s-1","parameterCategory":2,"la1":30.2991,"la2":30.254,"lo1":-89.0895,"lo2":-89.0444,"dy":0.0017,"dx":0.0017,"nx":28,"ny":28,"refTime":"2024-05-03T03:00:00:Z","depth":"4","parameterNumber":3,"parameterNumberName":"V-component_of_CURRENTS"},"data":[0,0,0,0,0,0,0,0,0,0,0,0,0,0,0,0,0,0,0,0,0,0,0,0,0,0,0,0,0,0,0,0,0,0,0,0,0,0,0,0,0,0,0,0,0,0,0,0,0,0,0,0,0,0,0,0,0,0,0.0288,0.0289,0,0.0326,0.0326,0.0327,0.0358,0.0359,0.0359,0.0359,0.0347,0.0346,0.0346,0,0,0,0,0,0,0,0,0,0,0,0,0,0.0232,0.0233,0.0288,0.0289,0.0289,0.0326,0.0326,0.0327,0.0358,0.0359,0.0359,0.0359,0.0347,0.0346,0.0346,0,0,0,0,0,0,0,0,0,0,0,0,0,0.0262,0.0233,0.0288,0.0309,0.0311,0.0326,0.0326,0.0327,0.0358,0.0359,0.0359,0.036,0.0347,0.0346,0.0345,0.033,0,0,0.0343,0.0342,0,0,0,0,0,0,0,0,0.026,0.0264,0.0306,0.0308,0.031,0.0338,0.0302,0.0325,0.0358,0.0341,0.0359,0.036,0.0339,0.0338,0.0345,0.0329,0.0329,0.0342,0.0342,0.0341,0.0341,0,0,0,0,0,0,0,0.0258,0.0262,0.0303,0.0306,0.0309,0.0313,0.0317,0.0307,0.0336,0.0342,0.0344,0.0348,0.034,0.0346,0.0345,0.0328,0.0342,0.0342,0.0341,0.0341,0.032,0.032,0,0,0,0,0,0,0.0253,0.026,0.0302,0.0304,0.0286,0.0313,0.0319,0.0329,0.0337,0.0339,0.0348,0.035,0.0348,0.0346,0.0345,0.0351,0.0341,0.0341,0.034,0.032,0.032,0.032,0,0,0,0,0,0,0.0252,0.0257,0.0301,0.0283,0.0288,0.0314,0.0324,0.0329,0.0353,0.0342,0.0343,0.0369,0.0348,0.0346,0.0336,0.035,0.034,0.0339,0.032,0.032,0.032,0.0347,0,0,0,0,0,0,0.025,0.0256,0.0269,0.0282,0.0289,0.0322,0.0324,0.0329,0.0353,0.0356,0.0359,0.0358,0.0348,0.0338,0.0335,0.0348,0.0339,0.032,0.032,0.032,0.0346,0.0348,0.035,0,0,0,0,0,0.0248,0.0266,0.0269,0.0275,0.0304,0.0322,0.0327,0.0346,0.0354,0.0368,0.0358,0.0359,0.0337,0.0336,0.0334,0.0347,0.032,0.032,0.032,0.0345,0.0348,0.035,0,0,0,0,0,0,0.0255,0.0271,0.0275,0.0299,0.0313,0.0328,0.0344,0.0355,0.0361,0.0361,0.0353,0.035,0.0351,0.034,0.034,0.034,0.0331,0.0331,0.0351,0.0353,0.0355,0.0359,0.0338,0,0,0,0,0,0.0259,0.0271,0.0288,0.0306,0.0315,0.0331,0.0344,0.0353,0.0357,0.0363,0.0365,0.0357,0.0347,0.0343,0.0336,0.0329,0.0305,0.0337,0.0339,0.0341,0.0341,0.031,0.0309,0.0321,0.0321,0.0321,0,0,0.0267,0.0275,0.0284,0.0307,0.0319,0.0337,0.0341,0.0361,0.0373,0.0357,0.0375,0.0365,0.0347,0.0344,0.0343,0.0337,0.0323,0.0341,0.0342,0.0342,0.031,0.0309,0.0308,0.0321,0.0321,0.0321,0,0,0.0279,0.0295,0.0308,0.0323,0.034,0.0349,0.0359,0.0379,0.0389,0.0393,0.0385,0.038,0.0372,0.0363,0.0354,0.0358,0.0336,0.0362,0.0371,0.0341,0.034,0.0338,0.03,0.0295,0.036,0.036,0.036,0,0.0286,0.0307,0.0315,0.0332,0.0348,0.0357,0.0378,0.0386,0.04,0.04,0.0401,0.0389,0.0381,0.0367,0.0372,0.0364,0.0337,0.0366,0.0343,0.0341,0.0339,0.03,0.0294,0.0361,0.0361,0.0361,0.0361,0,0.0309,0.0328,0.0339,0.036,0.0377,0.0396,0.0407,0.042,0.0428,0.043,0.0427,0.0409,0.0402,0.0401,0.0387,0.0375,0.0356,0.0352,0.0339,0.034,0.0298,0.0292,0.0363,0.0362,0.0362,0.0362,0,0,0.0318,0.0348,0.0353,0.0368,0.0394,0.041,0.0425,0.0439,0.0448,0.0449,0.0452,0.0438,0.0432,0.0421,0.0406,0.038,0.0346,0.0362,0.036,0.0325,0.0267,0.0248,0.0238,0.0335,0.0334,0.0334,0.0241,0,0.0334,0.0366,0.0378,0.0412,0.0432,0.0444,0.046,0.0469,0.047,0.0474,0.0449,0.045,0.0437,0.0436,0.0407,0.0366,0.0331,0.0371,0.027,0.0267,0.0251,0.0231,0.0331,0.0236,0.0234,0.0233,0.0232,0,0.0357,0.0373,0.0408,0.0437,0.0449,0.0472,0.0495,0.051,0.0506,0.0503,0.0489,0.0474,0.0445,0.0434,0.0352,0.0376,0.0324,0.0286,0.0281,0.025,0.0235,0.0235,0.022,0.0221,0.0222,0.0223,0.0223,0,0.0364,0.0397,0.0423,0.0437,0.0471,0.049,0.0511,0.0521,0.0535,0.0525,0.0529,0.0485,0.047,0.0401,0.0329,0.0338,0.0226,0.0228,0.0155,0.0153,0.0187,0.019,0.0161,0.0161,0.0161,0.0161,0.0161,0,0.0382,0.0406,0.043,0.0454,0.0484,0.0505,0.054,0.0549,0.0562,0.0575,0.055,0.0539,0.0462,0.0395,0.0321,0.0214,0.0217,0.0148,0.0127,0.0199,0.0204,0.0182,0.0185,0.0158,0.0158,0.0159,0.016,0,0.0395,0.041,0.0443,0.048,0.0493,0.052,0.0571,0.0593,0.0604,0.0617,0.0618,0.0574,0.0489,0.0396,0.0275,0.0209,0.0108,0.0067,0.014,0.0126,0.0054,0.0061,-0.0024,-0.0026,-0.0027,-0.0028,-0.0029,0,0.0408,0.0424,0.0465,0.0482,0.0505,0.0547,0.0576,0.0609,0.0631,0.0634,0.0635,0.057,0.0525,0.0336,0.0237,0.0079,0.0062,0.0001,0.0038,0.0048,0.0035,0.0043,0.0051,-0.0031,-0.0031,-0.0032,-0.0032,0,0.0425,0.0438,0.0466,0.05,0.0534,0.0573,0.0618,0.0636,0.0666,0.0677,0.0642,0.0559,0.0455,0.0325,0.0199,0.009,0.0038,-0.0012,-0.001,0.0024,0.0038,0.0029,0.0038,-0.0036,-0.0036,-0.0035,-0.0035,0,0.0434,0.0451,0.048,0.0509,0.055,0.0583,0.0612,0.0634,0.0657,0.0664,0.0643,0.0549,0.0495,0.0328,0.0212,0.0102,0.0081,0.0047,0.0046,0.005,0.0105,0.0136,0.0063,0,0,0,0,0,0.0432,0.0448,0.0482,0.0513,0.0556,0.0579,0.0628,0.0653,0.0679,0.0656,0.0654,0.056,0.0396,0.0328,0.0214,0.0184,0.0057,0.0046,0.0016,-0.006,-0.0055,-0.0005,0,0,0,0,0,0,0.0426,0.0458,0.0477,0.0509,0.0532,0.058,0.0613,0.0633,0.0623,0.0632,0.0549,0.0521,0.0364,0.0459,0.0207,0.0175,0.0138,-0.0023,-0.0026,-0.0063,-0.0059,-0.0055,-0.0001,0,0,0,0,0]}]]